Tracking 30744 objects as of 23-Jun-2025
HD Live streaming from Space Station
objects crossing your sky now

SL-19 DEB

Track SL-19 DEB now!
10-day predictions


NORAD ID: 24679
Int'l Code: 1994-085Y
Perigee: 1,851.3 km
Apogee: 2,160.8 km
Inclination: 65.0 °
Period: 127.2 minutes
Semi major axis: 8377 km
RCS: 0.047 m2 (small)
Launch date: December 26, 1994
Source: Commonwealth of Independent States (former USSR) (CIS)
Launch site: TYURATAM MISSILE AND SPACE COMPLEX (TTMTR)

Note: This is SATELLITE DEBRIS
Your satellite tracking list
Your tracking list is empty




NASA's NSSDC Master Catalog

Two Line Element Set (TLE):
1 24679U 94085Y   25172.80598825 -.00000048  00000-0 -15463-3 0  9992
2 24679  64.9832 104.1714 0184746 179.4660 213.4221 11.32305992425396
Source of the keplerian elements: AFSPC